Longville, MN

2:56 AM CST on December 14, 2017 (GMT -0600)
Longville Municipal

Weather History for KXVG - February, 2013

Change the Weather History Date:

Sunday, February 17, 2013

  Actual Average (KPWC) Record (KPWC)
Temperature  
Mean Temperature 18 °F -  
Max Temperature 28 °F 26 °F 53 °F (2017)
Min Temperature 8 °F 7 °F -25 °F (2006)
Degree Days  
Heating Degree Days 47    
Moisture  
Dew Point 12 °F    
Average Humidity 74    
Maximum Humidity 86    
Minimum Humidity 64    
Precipitation  
Precipitation 0.00 in - - ()
Sea Level Pressure  
Sea Level Pressure 29.76 in    
Wind  
Wind Speed 9 mph (SSE)    
Max Wind Speed 21 mph    
Max Gust Speed 28 mph    
Visibility 10 miles    
Events      
Averages and records for this station are not official NWS values.
T = Trace of Precipitation, MM = Missing Value Source: NWS Daily Summary

Daily Weather History Graph

Daily Weather History Graph

Search for Another Location

Airport or City:

Trip Planner

Search our weather history database for the weather conditions in past years. The results will help you decide how hot, cold, wet, or windy it might be!

Date:

Astronomy

Feb. 17, 2013 Rise Set
Actual Time 7:17 AM CST 5:44 PM CST
Civil Twilight 6:46 AM CST 6:15 PM CST
Nautical Twilight 6:10 AM CST 6:51 PM CST
Astronomical Twilight 5:35 AM CST 7:26 PM CST
Moon 10:40 AM CST (2/17) 1:10 AM CST (2/17)
Length of Visible Light 11h 29m
Length of Day
10h 27m
Waxing Crescent, 49% of the Moon is Illuminated
Feb 17
Waxing Crescent
Feb 17
First Quarter
Feb 25
Full
Mar 4
Last Quarter
Mar 11
New

Hourly Weather History & Observations

Time (CST) Temp. Windchill Dew Point Humidity Pressure Visibility Wind Dir Wind Speed Gust Speed Precip Events Conditions
12:16 AM 10.4 °F 4.0 °F 3.2 °F 73% 30.01 in 10.0 mi SSE 3.5 mph - N/A   Overcast
12:36 AM 10.4 °F 4.0 °F 3.2 °F 73% 30.00 in 10.0 mi SSE 3.5 mph - N/A   Overcast
12:55 AM 8.6 °F 0.1 °F 1.4 °F 73% 30.00 in 10.0 mi SSE 4.6 mph - N/A   Scattered Clouds
1:16 AM 8.6 °F -1.3 °F 1.4 °F 73% 29.99 in 10.0 mi SSE 5.8 mph - N/A   Scattered Clouds
1:35 AM 10.4 °F -0.4 °F 3.2 °F 73% 29.99 in 10.0 mi SSE 6.9 mph - N/A   Mostly Cloudy
1:56 AM 10.4 °F -1.5 °F 3.2 °F 73% 29.98 in 10.0 mi South 8.1 mph - N/A   Overcast
2:16 AM 10.4 °F 0.8 °F 3.2 °F 73% 29.98 in 10.0 mi SSE 5.8 mph - N/A   Mostly Cloudy
2:35 AM 10.4 °F 2.2 °F 3.2 °F 73% 29.99 in 10.0 mi South 4.6 mph - N/A   Scattered Clouds
2:55 AM 10.4 °F 0.8 °F 3.2 °F 73% 29.98 in 10.0 mi South 5.8 mph - N/A   Mostly Cloudy
3:15 AM 10.4 °F -1.5 °F 3.2 °F 73% 29.97 in 10.0 mi SSE 8.1 mph - N/A   Mostly Cloudy
3:36 AM 10.4 °F -1.5 °F 3.2 °F 73% 29.95 in 10.0 mi SSE 8.1 mph - N/A   Mostly Cloudy
3:56 AM 10.4 °F -3.3 °F 3.2 °F 73% 29.94 in 10.0 mi SSE 10.4 mph - N/A   Overcast
4:16 AM 10.4 °F -0.4 °F 3.2 °F 73% 29.93 in 10.0 mi SSE 6.9 mph - N/A   Overcast
4:36 AM 8.6 °F -2.6 °F 3.2 °F 79% 29.93 in 10.0 mi SSE 6.9 mph - N/A   Mostly Cloudy
4:56 AM 8.6 °F -4.7 °F 1.4 °F 73% 29.92 in 10.0 mi SSE 9.2 mph - N/A   Mostly Cloudy
5:15 AM 8.6 °F -5.5 °F 3.2 °F 79% 29.92 in 10.0 mi SSE 10.4 mph - N/A   Scattered Clouds
5:56 AM 8.6 °F -4.7 °F 1.4 °F 73% 29.90 in 10.0 mi SSE 9.2 mph - N/A   Scattered Clouds
6:15 AM 8.6 °F -4.7 °F 3.2 °F 79% 29.89 in 10.0 mi SSE 9.2 mph - N/A   Mostly Cloudy
6:36 AM 10.4 °F -1.5 °F 3.2 °F 73% 29.88 in 10.0 mi SSE 8.1 mph - N/A   Mostly Cloudy
6:55 AM 10.4 °F -3.3 °F 3.2 °F 73% 29.87 in 10.0 mi SSE 10.4 mph - N/A   Mostly Cloudy
7:16 AM 10.4 °F -3.3 °F 6.8 °F 85% 29.86 in 10.0 mi SSE 10.4 mph - N/A   Overcast
7:36 AM 12.2 °F -2.5 °F 8.6 °F 85% 29.86 in 10.0 mi SSE 12.7 mph - N/A   Overcast
7:56 AM 12.2 °F -1.8 °F 8.6 °F 85% 29.85 in 10.0 mi SSE 11.5 mph - N/A   Overcast
8:15 AM 12.2 °F -1.8 °F 8.6 °F 85% 29.85 in 10.0 mi SSE 11.5 mph - N/A   Overcast
8:35 AM 12.2 °F -1.8 °F 8.6 °F 85% 29.84 in 10.0 mi SSE 11.5 mph 18.4 mph N/A   Overcast
8:56 AM 12.2 °F -1.8 °F 8.6 °F 85% 29.82 in 10.0 mi SSE 11.5 mph 17.3 mph N/A   Overcast
9:16 AM 14.0 °F 1.2 °F 10.4 °F 86% 29.82 in 10.0 mi SSE 10.4 mph - N/A   Overcast
9:36 AM 15.8 °F 4.2 °F 10.4 °F 79% 29.82 in 10.0 mi SSE 9.2 mph - N/A   Overcast
9:56 AM 15.8 °F 2.1 °F 10.4 °F 79% 29.81 in 10.0 mi SSE 12.7 mph - N/A   Mostly Cloudy
10:16 AM 17.6 °F 5.7 °F 12.2 °F 79% 29.80 in 10.0 mi SSE 10.4 mph - N/A   Mostly Cloudy
10:36 AM 17.6 °F 6.4 °F 12.2 °F 79% 29.79 in 10.0 mi SSE 9.2 mph - N/A   Overcast
10:56 AM 19.4 °F 9.5 °F 14.0 °F 80% 29.79 in 10.0 mi SSE 8.1 mph 16.1 mph N/A   Overcast
11:16 AM 21.2 °F 10.9 °F 15.8 °F 80% 29.78 in 10.0 mi SSE 9.2 mph 16.1 mph N/A   Overcast
11:36 AM 21.2 °F 8.3 °F 15.8 °F 80% 29.77 in 10.0 mi SSE 13.8 mph 17.3 mph N/A   Overcast
11:56 AM 24.8 °F 12.4 °F 15.8 °F 69% 29.77 in 10.0 mi SSE 15.0 mph 21.9 mph N/A   Scattered Clouds
12:16 PM 24.8 °F 12.4 °F 17.6 °F 74% 29.75 in 10.0 mi SSE 15.0 mph 25.3 mph N/A   Scattered Clouds
12:36 PM 26.6 °F 13.4 °F 17.6 °F 69% 29.74 in 10.0 mi SSE 18.4 mph 23.0 mph N/A   Scattered Clouds
12:56 PM 26.6 °F 12.7 °F 17.6 °F 69% 29.72 in 10.0 mi South 20.7 mph 25.3 mph N/A   Mostly Cloudy
1:16 PM 28.4 °F 15.8 °F 17.6 °F 64% 29.71 in 10.0 mi SSE 18.4 mph 27.6 mph N/A   Overcast
1:36 PM 28.4 °F 16.6 °F 17.6 °F 64% 29.70 in 10.0 mi SSE 16.1 mph 25.3 mph N/A   Mostly Cloudy
1:55 PM 28.4 °F 16.2 °F 17.6 °F 64% 29.69 in 10.0 mi SSE 17.3 mph 27.6 mph N/A   Mostly Cloudy
2:16 PM 28.4 °F 16.2 °F 17.6 °F 64% 29.68 in 10.0 mi SSE 17.3 mph 24.2 mph N/A   Clear
2:36 PM 26.6 °F 14.7 °F 17.6 °F 69% 29.68 in 10.0 mi South 15.0 mph 26.5 mph N/A   Scattered Clouds
2:56 PM 26.6 °F 13.8 °F 17.6 °F 69% 29.67 in 10.0 mi South 17.3 mph 21.9 mph N/A   Clear
3:16 PM 26.6 °F 15.7 °F 17.6 °F 69% 29.66 in 10.0 mi South 12.7 mph 24.2 mph N/A   Clear
3:36 PM 28.4 °F 18.5 °F 17.6 °F 64% 29.65 in 10.0 mi SSE 11.5 mph 18.4 mph N/A   Clear
3:56 PM 28.4 °F 19.1 °F 17.6 °F 64% 29.64 in 10.0 mi SSE 10.4 mph - N/A   Clear
4:16 PM 28.4 °F 17.0 °F 17.6 °F 64% 29.63 in 10.0 mi SSE 15.0 mph - N/A   Clear
4:36 PM 28.4 °F 17.5 °F 19.4 °F 69% 29.63 in 10.0 mi SSE 13.8 mph 19.6 mph N/A   Clear
4:56 PM 28.4 °F 19.7 °F 19.4 °F 69% 29.62 in 10.0 mi SSE 9.2 mph - N/A   Clear
5:16 PM 28.4 °F 18.5 °F 19.4 °F 69% 29.62 in 10.0 mi SSE 11.5 mph 23.0 mph N/A   Clear
5:36 PM 28.4 °F 15.4 °F 17.6 °F 64% 29.61 in 10.0 mi SSE 19.6 mph 27.6 mph N/A   Scattered Clouds
5:56 PM 26.6 °F 15.7 °F 17.6 °F 69% 29.61 in 10.0 mi SSE 12.7 mph 16.1 mph N/A   Scattered Clouds
6:16 PM 26.6 °F 15.7 °F 17.6 °F 69% 29.60 in 10.0 mi SSE 12.7 mph 23.0 mph N/A   Scattered Clouds
6:36 PM 26.6 °F 15.7 °F 17.6 °F 69% 29.61 in 10.0 mi SSE 12.7 mph 23.0 mph N/A   Scattered Clouds
6:56 PM 26.6 °F 14.7 °F 17.6 °F 69% 29.61 in 10.0 mi SSE 15.0 mph 19.6 mph N/A   Scattered Clouds
7:16 PM 26.6 °F 15.2 °F 17.6 °F 69% 29.61 in 10.0 mi SSE 13.8 mph 19.6 mph N/A   Overcast
7:36 PM 26.6 °F 17.5 °F 17.6 °F 69% 29.61 in 10.0 mi SSE 9.2 mph - N/A   Scattered Clouds
7:56 PM 26.6 °F 15.7 °F 19.4 °F 74% 29.61 in 10.0 mi SSE 12.7 mph 18.4 mph N/A   Clear
8:16 PM 26.6 °F 15.7 °F 19.4 °F 74% 29.61 in 10.0 mi SSE 12.7 mph 19.6 mph N/A   Clear
8:36 PM 26.6 °F 15.7 °F 19.4 °F 74% 29.61 in 10.0 mi SSE 12.7 mph 19.6 mph N/A   Scattered Clouds
8:56 PM 26.6 °F 18.2 °F 19.4 °F 74% 29.61 in 10.0 mi SSE 8.1 mph - N/A   Scattered Clouds
9:16 PM 26.6 °F 16.8 °F 19.4 °F 74% 29.60 in 10.0 mi SSE 10.4 mph - N/A   Scattered Clouds
9:36 PM 26.6 °F 17.5 °F 19.4 °F 74% 29.59 in 10.0 mi SSE 9.2 mph - N/A   Scattered Clouds
9:56 PM 24.8 °F 15.3 °F 19.4 °F 80% 29.59 in 10.0 mi SE 9.2 mph - N/A   Clear
10:16 PM 24.8 °F 16.1 °F 17.6 °F 74% 29.59 in 10.0 mi SSE 8.1 mph - N/A   Clear
10:36 PM 24.8 °F 17.9 °F 17.6 °F 74% 29.58 in 10.0 mi SE 5.8 mph - N/A   Clear
10:56 PM 24.8 °F 16.1 °F 17.6 °F 74% 29.57 in 10.0 mi SSE 8.1 mph - N/A   Clear
11:16 PM 24.8 °F 16.9 °F 17.6 °F 74% 29.56 in 10.0 mi SE 6.9 mph - N/A   Clear
11:36 PM 23.0 °F 13.9 °F 17.6 °F 80% 29.55 in 10.0 mi SSE 8.1 mph - N/A   Clear
11:56 PM 23.0 °F 14.7 °F 17.6 °F 80% 29.55 in 10.0 mi SSE 6.9 mph - N/A   Clear